Regional Weather Roundup
Issued by NWS

Home | Current Version | Previous Version | Graphics & Text | Print | Product List | Glossary Off
Versions: 1 2 3 4 5 6 7 8 9 10 11 12 13 14 15 16 17 18 19 20 21 22 23 24 25 26 27 28 29 30 31 32 33 34 35 36 37 38 39 40 41 42 43 44 45 46 47 48 49 50

000
ASUS43 KTOP 231459
RWRKS

WEATHER ROUNDUP FOR KANSAS
NATIONAL WEATHER SERVICE GOODLAND KS
1000 AM CDT SUN APR 23 2017

NOTE:  "FAIR" INDICATES FEW OR NO CLOUDS BELOW 12,000 FEET WITH NO
SIGNIFICANT WEATHER AND/OR OBSTRUCTIONS TO VISIBILITY.

KSZ001>006-013>018-027>032-041>047-231600-
NORTHWEST KANSAS

CITY           SKY/WX    TMP DP  RH WIND       PRES   REMARKS
GOODLAND       CLOUDY    51  36  56 S22G30    30.09F
HAYS           SUNNY     57  36  45 SW13      30.18F
HILL CITY      SUNNY     58  34  40 SW12      30.16F
RUSSELL        SUNNY     54  37  52 SW6       30.17F
$$

KSZ061>065-074>080-084>089-231600-
SOUTHWEST KANSAS

CITY           SKY/WX    TMP DP  RH WIND       PRES   REMARKS
DODGE CITY     SUNNY     53  38  56 SW9       30.20F
ELKHART          N/A     50  31  48 S16         N/A
GARDEN CITY    SUNNY     55  35  47 S16       30.17F
$$

KSZ066>073-081>083-090>101-231600-
SOUTHEAST KANSAS

CITY           SKY/WX    TMP DP  RH WIND       PRES   REMARKS
CHANUTE        SUNNY     57  38  48 NE5       30.18S
COFFEYVILLE    SUNNY     57  41  55 N6        30.18S
HUTCHINSON     SUNNY     57  35  43 SW3       30.20S
MEDICINE LODGE   N/A     55  38  52 VRB3      30.20F
NEWTON         SUNNY     57  38  48 CALM      30.21S
PARSONS        SUNNY     57  39  51 VRB3      30.19S
WICHITA INTL   SUNNY     57  36  45 CALM      30.20S
WICHITA JABRA  SUNNY     56  36  47 CALM      30.20R
WINFIELD       SUNNY     56  45  66 CALM      30.21S
$$

KSZ007>012-019>026-033>040-048>060-102>105-231600-
NORTHEAST KANSAS

CITY           SKY/WX    TMP DP  RH WIND       PRES   REMARKS
CONCORDIA      SUNNY     58  36  43 SW10      30.18F
EMPORIA        SUNNY     56  37  49 NE5       30.19S
LAWRENCE       SUNNY     57  41  55 CALM      30.19S
MANHATTAN      SUNNY     55  42  61 VRB3      30.19F
OLATHE IND     SUNNY     58  37  45 VRB5      30.18S
OLATHE EXE     SUNNY     58  34  40 NE3       30.18S
SALINA         SUNNY     57  40  52 S5        30.20F
TOPEKA BILLARD SUNNY     56  40  55 CALM      30.19S
TOPEKA FORBES  SUNNY     59  39  47 NW3       30.19R
$$




USA.gov is the U.S. government's official web portal to all federal, state and local government web resources and services.